• Join FlightAware (Why Join?)
  • Login
  • US Flag 
02:28AM EDT


 

Airport Tracker/Info


-or-


 

Live Flight TrackerFlight Track Log ✈ SWA378 ✈ 22-May-2013 ✈ KATL - KORF

Flight Track Log - Related Links

Times and Time Zones

All times are in EDT time to prevent confusion due to time zone crossing. See the SWA378 flight status page for this flight to view local times or setup timezone preferences in your user account.

Time Position Orientation Groundspeed Altitude Reporting Facility
EDT Latitude Longitude Course Direction KTS MPH feet Rate Location/Type
06:48PM 33.6306 -84.4828 226° Southwest 445 512 3,000  Level Atlanta Center
06:49PM 33.6167 -84.5000 226° Southwest 212 244 4,200 3,600 Climbing Atlanta TRACON
06:50PM 33.5833 -84.5833 244° Southwest 269 310 7,600 2,160 Climbing Atlanta TRACON
06:51PM 33.4592 -84.5369 163° South 299 344 10,200 2,220 Climbing Atlanta Center
06:52PM 33.4533 -84.4147 93° East 288 331 13,800 3,300 Climbing Atlanta Center
06:53PM 33.4581 -84.2853 87° East 356 410 16,800 2,880 Climbing Atlanta Center
06:54PM 33.5042 -84.1633 66° East 370 426 19,600 2,700 Climbing Atlanta Center
06:55PM 33.5708 -84.0464 56° Northeast 386 444 22,200 2,400 Climbing Atlanta Center
06:56PM 33.6397 -83.9264 55° Northeast 418 481 24,400 2,280 Climbing Atlanta Center
06:57PM 33.6897 -83.7892 66° East 441 507 26,800 2,100 Climbing Atlanta Center
06:58PM 33.7394 -83.6492 67° East 446 513 28,600 1,740 Climbing Atlanta Center
06:59PM 33.7889 -83.5039 68° East 462 532 30,300 1,200 Climbing Atlanta Center
07:00PM 33.8403 -83.3586 67° East 467 537 31,000 300 Climbing Atlanta Center
07:01PM 33.8936 -83.2106 67° East 467 537 31,000  Level Atlanta Center
07:02PM 33.9428 -83.0672 68° East 468 539 31,000  Level Atlanta Center
07:03PM 33.9936 -82.9214 67° East 468 539 31,000 660 Level Atlanta Center
07:04PM 34.0383 -82.7906 68° East 468 539 32,400 960 Climbing Atlanta Center
07:05PM 34.0889 -82.6417 68° East 473 544 33,000 300 Climbing Atlanta Center
07:06PM 34.1414 -82.4853 68° East 468 539 33,000  Level Atlanta Center
07:07PM 34.1917 -82.3386 67° East 463 533 33,000 360 Level Atlanta Center
07:08PM 34.2394 -82.1894 69° East 463 533 33,800 1,200 Climbing Atlanta Center
07:09PM 34.3042 -82.0522 60° Northeast 463 533 35,500 1,620 Climbing Atlanta Center
07:10PM 34.3708 -81.9172 59° Northeast 463 533 37,100 1,380 Climbing Atlanta Center
07:11PM 34.4353 -81.7847 59° Northeast 457 526 38,300 900 Climbing Atlanta Center
07:12PM 34.4889 -81.6447 65° Northeast 457 526 39,000 300 Climbing Atlanta Center
07:13PM 34.5464 -81.5017 64° Northeast 457 526 39,000  Level Atlanta Center
07:14PM 34.6019 -81.3639 64° Northeast 457 526 39,000  Level Atlanta Center
07:15PM 34.6553 -81.2258 65° Northeast 448 516 39,000  Level Atlanta Center
07:16PM 34.7103 -81.0850 65° Northeast 455 524 39,000  Level Atlanta Center
07:17PM 34.7575 -80.9644 64° Northeast 450 518 39,000 -300 Level Atlanta Center
07:19PM 34.8783 -80.6553 64° Northeast 508 585 38,100 -660 Descending Washington Center
07:20PM 34.9319 -80.5194 64° Northeast 459 528 37,100 -600 Descending Washington Center
07:21PM 34.9836 -80.3756 66° East 454 522 37,000 -60 Descending Washington Center
07:22PM 35.0417 -80.2319 64° Northeast 454 522 37,000  Level Washington Center
07:23PM 35.0931 -80.0850 67° East 461 531 37,000  Level Washington Center
07:24PM 35.1569 -79.9336 63° Northeast 461 531 37,000  Level Washington Center
07:25PM 35.2122 -79.7892 65° Northeast 456 525 37,000 -480 Level Washington Center
07:26PM 35.2653 -79.6469 65° Northeast 456 525 36,100 -960 Descending Washington Center
07:27PM 35.3178 -79.5094 65° Northeast 456 525 35,100 -1,020 Descending Washington Center
07:28PM 35.3747 -79.3647 64° Northeast 463 533 34,100 -960 Descending Washington Center
07:29PM 35.4292 -79.2169 66° East 470 541 33,200 -1,020 Descending Washington Center
07:30PM 35.4817 -79.0739 66° East 470 541 32,200 -1,020 Descending Washington Center
07:31PM 35.5381 -78.9231 65° Northeast 470 541 31,200 -900 Descending Washington Center
07:32PM 35.5875 -78.7922 65° Northeast 475 547 30,400 -900 Descending Washington Center
07:33PM 35.6436 -78.6439 65° Northeast 475 547 29,400 -1,080 Descending Washington Center
07:34PM 35.6972 -78.4950 66° East 475 547 28,300 -1,080 Descending Washington Center
07:35PM 35.7547 -78.3589 62° Northeast 464 534 27,300 -1,020 Descending Washington Center
07:36PM 35.8183 -78.2253 60° Northeast 452 520 26,300 -1,080 Descending Washington Center
07:37PM 35.8794 -78.0942 60° Northeast 439 505 25,200 -1,080 Descending Washington Center
07:38PM 35.9158 -77.9567 72° East 426 490 24,200 -1,140 Descending Washington Center
07:39PM 35.9372 -77.8111 80° East 420 483 23,000 -1,440 Descending Washington Center
07:40PM 35.9586 -77.6706 79° East 420 483 21,500 -1,020 Descending Washington Center
07:41PM 35.9797 -77.5375 79° East 409 471 21,000 -600 Descending Washington Center
07:42PM 36.0025 -77.3994 78° East 409 471 20,300 -900 Descending Washington Center
07:43PM 36.0544 -77.2825 61° Northeast 397 457 19,300 -1,140 Descending Washington Center
07:44PM 36.0947 -77.2319 45° Northeast 401 461 18,700 -1,020 Descending Washington Center
07:44PM 36.1331 -77.1839 45° Northeast 390 449 18,300 -1,020 Descending Washington Center
07:45PM 36.1839 -77.1206 45° Northeast 400 460 17,600 -1,200 Descending Washington Center
07:45PM 36.2117 -77.0747 53° Northeast 384 442 17,100 -1,020 Descending Washington Center
07:46PM 36.2497 -77.0344 40° Northeast 396 456 16,700 -1,020 Descending Washington Center
07:46PM 36.2900 -76.9783 48° Northeast 384 442 16,100 -1,020 Descending Washington Center
07:47PM 36.3428 -76.9147 44° Northeast 388 447 15,500 -1,080 Descending Washington Center
07:47PM 36.3639 -76.8842 49° Northeast 384 442 15,100 -1,560 Descending Washington Center
07:48PM 36.4381 -76.7872 46° Northeast 384 442 13,500 -1,620 Descending Washington Center
07:49PM 36.4847 -76.7028 55° Northeast 366 421 12,200 -1,320 Descending Washington Center
07:50PM 36.5294 -76.6078 60° Northeast 365 420 11,300 -1,020 Descending Washington Center
07:50PM 36.5483 -76.5719 57° Northeast 371 427 11,000 -840 Descending Washington Center
07:51PM 36.5803 -76.5050 59° Northeast 324 373 10,500 -960 Descending Washington Center
07:51PM 36.5972 -76.4767 53° Northeast 347 399 10,100 -1,380 Descending Washington Center
07:52PM 36.6311 -76.4072 59° Northeast 312 359 9,100 -1,440 Descending Washington Center
07:52PM 36.6436 -76.3892 49° Northeast 321 369 8,700 -1,860 Descending Washington Center
07:53PM 36.6900 -76.3275 47° Northeast 315 362 7,200 -2,160 Descending Washington Center
07:54PM 36.7444 -76.2736 38° Northeast 310 357 5,400 -1,860 Descending Washington Center
07:55PM 36.8181 -76.2017 38° Northeast 300 345 3,800 -900 Descending Washington Center
07:56PM 36.8786 -76.1397 39° Northeast 244 281 3,400 -540 Descending Washington Center
07:57PM 36.9311 -76.0958 34° Northeast 170 196 2,700 -720 Descending Washington Center